CAPE
1324 1533 1664 1590 1791 1791 1908 1542 1295 1464 1511 957 1805 1761 1770 1532 1361 1223 996 827 962 643 414 295 347 834 1019 769 188 130 271 501 504 466 970 1056 893 474 339 450 882 438 649
1214 1290 1822 1872 1902 1901 1905 1682 1587 1814 1791 1770 1974 1896 1798 1717 1649 1346 1048 707 469 413 408 153 90 208 738 682 362 207 169 158 277 385 444 581 880 685 600 661 793 691 457
1125 1132 1346 1919 1902 1696 1763 1616 1819 1625 1446 1387 1363 1402 1464 1202 920 881 804 586 440 532 337 199 35 3 121 350 184 158 197 167 149 174 191 120 204 680 664 822 978 750 354
1246 1289 1426 1735 1775 1529 1382 1488 1605 1429 1487 1349 1050 836 905 976 878 897 710 579 670 646 327 264 228 163 54 11 77 120 182 187 101 22 29 11 286 550 602 552 418 341 278
1288 1327 1500 1552 1614 1424 1385 1370 1358 1459 1399 1333 1168 1089 917 865 938 1070 942 936 1090 890 616 410 400 327 156 40 10 196 132 39 10 3 150 295 383 487 667 475 262 208 368
931 1051 1275 1481 1277 1324 1291 1292 1356 1384 1467 1428 1407 1211 1121 1064 1103 1185 1356 1156 1097 1187 643 638 710 512 378 303 96 84 46 0 0 1 55 131 487 494 448 386 777 371 546
1068 1125 1055 1490 1562 1548 1564 1592 1660 1688 1612 1502 1365 1328 1212 1013 994 1158 1275 1309 1148 1083 981 782 730 758 658 468 282 223 37 0 0 0 0 0 339 376 566 637 787 816 656
939 1139 1170 1197 1369 1520 1615 1605 1624 1565 1512 1390 1279 1245 1202 1150 992 875 985 1106 1037 1123 1161 973 647 360 496 569 544 261 0 0 0 0 0 0 318 337 353 376 644 709 689
6 0 2 102 534 613 1020 1057 1143 1246 1209 1396 1359 1232 1048 1030 1072 953 912 1000 1034 1019 1136 1057 848 585 117 523 553 290 0 0 55 92 181 345 33 151 658 368 544 606 719
0 0 0 0 0 0 0 252 541 563 551 589 616 531 598 549 559 832 721 878 1058 1016 929 994 1007 872 431 382 587 152 0 0 5 216 281 491 157 581 565 576 723 553 739
0 0 0 0 0 0 0 0 0 0 0 0 0 0 0 131 501 631 573 605 649 949 954 915 925 856 678 508 506 71 0 0 0 19 260 125 272 505 710 889 862 395 364
0 0 0 0 0 0 0 0 0 0 0 0 0 0 0 0 0 244 277 273 393 605 667 906 771 745 489 256 26 1 0 0 0 0 8 76 366 422 504 745 603 755 748
0 0 0 0 0 0 0 0 0 0 0 0 0 0 0 0 0 0 0 375 715 492 777 797 819 752 698 585 153 0 0 0 0 0 0 44 368 490 305 422 345 826 810
0 0 0 0 0 0 0 0 0 0 0 0 0 0 0 0 0 0 0 77 83 596 743 812 910 826 906 738 605 79 0 0 0 0 0 27 169 527 509 318 498 491 495
0 0 0 0 0 0 0 0 0 0 0 0 0 0 0 0 0 0 0 0 166 431 676 712 805 738 800 793 717 600 101 0 0 2 0 6 42 322 570 583 543 517 473
0 0 0 0 0 0 0 0 2 0 0 0 0 0 0 0 0 0 0 0 0 99 392 664 757 723 790 757 769 683 630 302 18 39 19 25 6 77 513 651 642 497 398
0 0 0 0 0 0 0 0 0 0 5 3 0 0 0 0 0 0 0 0 0 2 178 783 883 706 694 805 891 700 630 646 573 98 74 134 63 66 141 568 821 683 742
0 0 0 0 0 0 0 0 0 0 0 0 0 7 5 5 3 0 0 0 0 0 12 89 482 411 496 484 529 367 359 610 665 567 422 82 183 147 63 138 686 986 911
0 0 0 0 0 0 0 0 0 0 0 0 0 0 0 0 2 8 4 1 0 0 0 15 100 106 78 183 326 344 297 199 261 601 597 568 232 180 251 127 21 49 232
0 0 0 0 0 0 0 0 0 0 0 0 0 0 0 0 0 0 11 11 7 2 4 11 7 16 42 19 10 12 30 47 108 277 575 675 580 373 206 304 164 114 47
0 0 0 0 0 0 0 0 0 0 0 0 0 0 0 0 0 0 0 9 12 14 15 18 28 30 16 31 28 8 4 0 6 84 172 629 619 629 442 210 265 259 97
0 0 0 0 0 0 0 0 0 0 0 0 0 0 0 0 0 0 0 0 0 7 6 10 33 26 41 33 32 14 7 0 1 0 40 458 562 643 495 512 402 277 244
0 0 0 0 0 0 0 0 0 0 0 0 0 0 0 0 0 0 0 0 0 0 9 16 23 35 63 42 53 32 13 3 0 0 0 17 97 210 275 354 430 396 289
0 0 0 0 0 0 0 0 0 0 0 0 0 0 0 0 0 0 3 1 0 0 0 8 13 36 53 52 66 59 54 31 16 1 1 2 2 1 5 7 100 257 298
0 0 0 0 0 0 0 0 0 0 0 0 0 0 0 0 0 0 0 0 0 0 0 0 0 8 49 53 47 80 44 35 50 38 6 2 4 6 9 11 33 72 94
0 0 0 0 0 0 0 0 0 0 0 0 0 0 0 0 0 0 0 0 0 0 0 0 0 0 0 50 45 47 56 43 14 14 24 9 3 3 5 5 5 3 1
CIN
-0 -0 -2 -1 -1 -0 -0 -0 -0 -0 -0 -6 -0 -0 -0 -0 -0 -0 -0 -1 -0 -3 -16 -23 -8 -0 -0 -0 -1 -25 -8 -1 -1 -5 -1 -0 -0 -1 -10 -7 -3 -0 -0
-0 -0 -2 -0 -1 -0 -1 -0 -0 -1 -0 -0 -0 -0 -0 -0 -0 -0 -0 -0 -12 -15 -9 -35 -39 -9 -0 -0 -0 -10 -42 -67 -46 -25 -16 -5 -1 -0 -0 -5 -2 -0 -0
-0 -0 -0 -1 -2 -3 -3 -4 -1 -1 -0 -0 -0 -0 -0 -0 -2 -0 -1 -8 -11 -3 -11 -16 -54 -14 -23 -0 -16 -34 -39 -70 -99 -96 -89 -98 -57 -0 -0 -1 -0 -1 -13
-0 -0 -0 -3 -2 -2 -8 -6 -3 -4 -2 -0 -1 -8 -3 -0 -0 -0 -1 -4 -0 -0 -12 -7 -4 -11 -45 -130 -63 -51 -40 -58 -131 -250 -203 -94 -44 -2 -6 -3 -14 -30 -38
-0 -0 -0 -4 -6 -8 -7 -4 -5 -3 -3 -2 -3 -1 -3 -2 -0 -0 -0 -0 -1 -0 -2 -4 -0 -0 -8 -72 -110 -9 -57 -157 -265 -76 -82 -33 -16 -6 -1 -8 -45 -66 -23
-0 -0 -5 -6 -8 -11 -9 -9 -6 -4 -3 -2 -1 -2 -1 -1 -3 -1 -1 -2 -1 -1 -3 -0 -0 -0 -0 -2 -45 -60 -117 -0 -0 -0 -144 -78 -5 -7 -6 -17 -0 -15 -2
-0 -0 -0 -6 -4 -4 -3 -2 -0 -0 -0 -0 -0 -0 -1 -3 -1 -2 -2 -2 -1 -1 -0 -0 -0 -0 -0 -0 -5 -16 -51 -0 -0 -0 -0 -0 -17 -14 -3 -0 -0 -0 -0
-0 -0 -0 -5 -10 -2 -0 -0 -0 -0 -0 -0 -1 -1 -0 -0 -2 -3 -2 -3 -3 -2 -0 -0 -1 -5 -3 -0 -0 -9 -0 -0 -0 -0 -0 -0 -0 -3 -15 -6 -0 -0 -0
-20 -7 -25 -75 -11 -20 -18 -10 -3 -0 -1 -0 -1 -1 -5 -5 -3 -1 -2 -1 -1 -2 -1 -1 -1 -1 -16 -1 -0 -12 -0 -0 -71 -82 -12 -0 -122 -43 -0 -8 -0 -0 -0
-0 -0 -0 -0 -0 -0 -0 -47 -26 -30 -28 -22 -19 -17 -13 -21 -17 -10 -11 -7 -2 -2 -2 -3 -2 -2 -3 -5 -1 -27 -0 -0 -0 -14 -3 -0 -36 -7 -2 -0 -1 -6 -7
-0 -0 -0 -0 -0 -0 -0 -0 -0 -0 -0 -0 -0 -0 -0 -1 -0 -0 -4 -10 -15 -4 -2 -2 -2 -3 -3 -3 -2 -53 -0 -0 -0 -77 -3 -47 -26 -9 -8 -1 -1 -5 -5
-0 -0 -0 -0 -0 -0 -0 -0 -0 -0 -0 -0 -0 -0 -0 -0 -0 -15 -13 -19 -14 -17 -15 -6 -4 -5 -9 -1 -83 -53 -0 -0 -0 -0 -22 -101 -25 -10 -9 -3 -7 -3 -1
-0 -0 -0 -0 -0 -0 -0 -0 -0 -0 -0 -0 -0 -0 -0 -0 -0 -0 -0 -0 -0 -5 -0 -3 -1 -0 -0 -0 -13 -0 -0 -0 -0 -0 -0 -109 -28 -9 -20 -2 -6 -2 -3
-0 -0 -0 -0 -0 -0 -0 -0 -0 -0 -0 -0 -0 -0 -0 -0 -0 -0 -0 -22 -8 -0 -0 -0 -0 -0 -0 -0 -0 -36 -0 -0 -16 -0 -0 -118 -46 -10 -7 -27 -3 -6 -9
-0 -0 -0 -0 -0 -0 -0 -0 -0 -0 -0 -0 -0 -0 -0 -0 -0 -0 -0 -0 -17 -0 -0 -0 -0 -0 -0 -0 -0 -0 -39 -0 -0 -22 -0 -155 -112 -23 -2 -0 -0 -3 -3
-0 -0 -0 -0 -0 -0 -0 -0 -0 -0 -0 -0 -0 -0 -0 -0 -0 -0 -0 -0 -0 -35 -0 -0 -0 -0 -0 -0 -0 -0 -0 -5 -87 -69 -116 -159 -242 -81 -14 -5 -2 -1 -2
-0 -0 -0 -0 -0 -0 -0 -0 -0 -0 -0 -0 -0 -0 -0 -0 -0 -0 -0 -0 -0 -20 -2 -0 -0 -0 -0 -0 -0 -0 -0 -0 -0 -22 -37 -27 -68 -71 -23 -10 -1 -2 -0
-0 -0 -0 -0 -0 -0 -0 -0 -0 -0 -0 -0 -0 -0 -0 -0 -0 -0 -0 -0 -0 -0 -262 -48 -0 -0 -0 -0 -0 -8 -9 -0 -0 -0 -0 -31 -17 -39 -72 -42 -11 -2 -0
-0 -0 -0 -0 -0 -0 -0 -0 -0 -0 -0 -0 -0 -0 -0 -0 -0 -0 -0 -0 -0 -0 -0 -192 -91 -61 -58 -20 -1 -9 -9 -8 -5 -0 -0 -0 -6 -20 -16 -9 -16 -58 -52
-0 -0 -0 -0 -0 -0 -0 -0 -0 -0 -0 -0 -0 -0 -0 -0 -0 -0 -0 -0 -0 -0 -0 -0 -0 -47 -160 -201 -254 -88 -168 -129 -61 -7 -0 -0 -0 -3 -21 -6 -38 -0 -3
-0 -0 -0 -0 -0 -0 -0 -0 -0 -0 -0 -0 -0 -0 -0 -0 -0 -0 -0 -0 -0 -0 -0 -0 -0 -0 -0 -0 -12 -1 -0 -0 -239 -78 -33 -0 -0 -0 -0 -10 -10 -13 -45
-0 -0 -0 -0 -0 -0 -0 -0 -0 -0 -0 -0 -0 -0 -0 -0 -0 -0 -0 -0 -0 -0 -0 -0 -0 -0 -0 -0 -0 -0 -0 -0 -0 -0 -131 -0 -0 -0 -0 -0 -0 -14 -20
-0 -0 -0 -0 -0 -0 -0 -0 -0 -0 -0 -0 -0 -0 -0 -0 -0 -0 -0 -0 -0 -0 -0 -0 -0 -0 -0 -0 -0 -0 -0 -0 -0 -0 -0 -48 -49 -5 -0 -0 -0 -0 -5
-0 -0 -0 -0 -0 -0 -0 -0 -0 -0 -0 -0 -0 -0 -0 -0 -0 -0 -0 -0 -0 -0 -0 -0 -0 -0 -0 -0 -0 -0 -0 -0 -0 -0 -0 -0 -0 -0 -0 -23 -23 -1 -2
-0 -0 -0 -0 -0 -0 -0 -0 -0 -0 -0 -0 -0 -0 -0 -0 -0 -0 -0 -0 -0 -0 -0 -0 -0 -7 -0 -0 -0 -0 -0 -0 -0 -0 -0 -0 -0 -0 -0 -8 -68 -30 -19
-0 -0 -0 -0 -0 -0 -0 -0 -0 -0 -0 -0 -0 -0 -0 -0 -0 -0 -0 -0 -0 -0 -0 -0 -0 -0 -0 -0 -0 -0 -0 -0 -0 -0 -0 -0 -0 -0 -0 -0 -0 -0 -0
Wind_Speed
10 12 11 10 8 9 10 14 15 16 17 16 17 16 15 15 14 15 15 15 15 15 12 10 9 11 12 7 10 14 14 16 15 15 12 9 6 7 5 2 3 9 11
11 12 14 13 11 11 11 14 15 15 16 19 18 17 17 16 15 16 15 14 14 14 13 11 nan 12 14 10 11 14 15 16 16 16 13 10 9 6 3 8 7 8 11
12 11 13 14 14 14 15 15 17 16 17 18 19 18 18 17 15 14 14 15 14 15 15 14 nan nan 14 13 12 14 15 16 16 15 14 8 7 5 5 7 6 6 7
14 14 14 14 15 17 17 19 18 18 18 17 17 18 18 19 18 16 15 14 15 17 17 16 14 13 nan nan nan 13 16 18 16 nan nan nan 10 6 8 8 8 8 7
16 15 17 16 19 19 19 21 21 22 21 20 19 17 18 18 19 19 18 17 16 18 18 17 16 15 13 nan nan 15 16 nan nan nan 15 15 14 10 12 11 9 9 5
21 21 23 20 21 21 22 22 22 23 24 24 23 21 20 18 16 18 20 19 17 16 16 17 17 17 16 14 nan nan nan nan nan nan nan 17 20 14 16 14 13 11 10
23 23 24 22 22 23 24 24 25 25 24 24 24 25 23 22 21 20 21 21 19 17 15 15 16 17 16 15 14 14 nan nan nan nan nan nan 21 17 15 18 14 13 13
22 21 22 24 25 27 26 26 26 26 26 27 26 26 25 25 24 23 22 20 18 18 17 15 15 17 16 16 15 16 nan nan nan nan nan nan 21 16 16 17 15 16 17
nan nan nan 20 19 21 24 25 27 29 29 29 29 29 29 28 27 25 24 22 20 17 18 18 16 16 16 16 16 18 nan nan nan nan 20 19 nan 16 14 15 14 12 15
nan nan nan nan nan nan nan 24 21 24 28 30 31 31 30 25 26 23 23 21 23 21 19 18 19 19 19 16 15 18 nan nan nan 18 18 21 20 18 13 13 12 14 14
nan nan nan nan nan nan nan nan nan nan nan nan nan nan nan 27 26 24 30 27 25 25 22 20 19 21 24 22 18 nan nan nan nan nan 20 25 19 17 11 11 15 17 18
nan nan nan nan nan nan nan nan nan nan nan nan nan nan nan nan nan 31 29 26 23 21 23 22 23 22 23 24 nan nan nan nan nan nan nan nan 21 24 28 21 18 19 23
nan nan nan nan nan nan nan nan nan nan nan nan nan nan nan nan nan nan nan 30 28 25 25 22 21 23 22 25 25 nan nan nan nan nan nan nan 26 27 29 25 20 23 23
nan nan nan nan nan nan nan nan nan nan nan nan nan nan nan nan nan nan nan nan nan 31 30 27 26 22 20 19 23 nan nan nan nan nan nan nan 24 25 26 25 27 27 27
nan nan nan nan nan nan nan nan nan nan nan nan nan nan nan nan nan nan nan nan 32 32 31 31 28 27 24 23 23 23 23 nan nan nan nan nan nan 24 23 23 25 26 27
nan nan nan nan nan nan nan nan nan nan nan nan nan nan nan nan nan nan nan nan nan nan 27 28 28 28 28 27 26 24 23 25 nan nan nan nan nan nan 25 25 24 23 23
nan nan nan nan nan nan nan nan nan nan nan nan nan nan nan nan nan nan nan nan nan nan 26 26 26 25 24 25 23 21 23 22 26 nan nan 28 nan nan 29 27 27 23 22
nan nan nan nan nan nan nan nan nan nan nan nan nan nan nan nan nan nan nan nan nan nan nan nan 27 25 23 23 23 22 22 22 18 19 24 nan 27 29 nan 25 24 21 28
nan nan nan nan nan nan nan nan nan nan nan nan nan nan nan nan nan nan nan nan nan nan nan nan 30 27 nan 26 24 23 21 20 20 21 18 19 21 24 29 32 nan nan 23
nan nan nan nan nan nan nan nan nan nan nan nan nan nan nan nan nan nan nan nan nan nan nan nan nan nan nan nan nan nan nan nan 25 23 18 19 21 24 25 26 31 29 nan
nan nan nan nan nan nan nan nan nan nan nan nan nan nan nan nan nan nan nan nan nan nan nan nan nan nan nan nan nan nan nan nan nan nan 27 23 20 20 24 27 30 31 nan
nan nan nan nan nan nan nan nan nan nan nan nan nan nan nan nan nan nan nan nan nan nan nan nan nan nan nan nan nan nan nan nan nan nan nan 29 25 27 24 21 25 29 31
nan nan nan nan nan nan nan nan nan nan nan nan nan nan nan nan nan nan nan nan nan nan nan nan nan nan nan nan nan nan nan nan nan nan nan nan nan 33 30 26 24 23 26
nan nan nan nan nan nan nan nan nan nan nan nan nan nan nan nan nan nan nan nan nan nan nan nan nan nan nan nan nan nan nan nan nan nan nan nan nan nan nan nan 32 29 27
nan nan nan nan nan nan nan nan nan nan nan nan nan nan nan nan nan nan nan nan nan nan nan nan nan nan nan nan nan nan nan nan nan nan nan nan nan nan nan nan nan nan nan
nan nan nan nan nan nan nan nan nan nan nan nan nan nan nan nan nan nan nan nan nan nan nan nan nan nan nan nan nan nan nan nan nan nan nan nan nan nan nan nan nan nan nan
Wind_Direction
252 247 221 229 250 255 251 247 244 238 233 245 251 257 262 262 263 263 253 245 242 243 238 255 256 250 257 256 221 205 211 206 212 203 193 204 216 229 232 218 307 256 243
260 245 228 237 244 252 249 252 248 238 236 237 242 248 249 252 257 260 255 248 248 243 245 246 nan 244 247 245 210 214 214 214 216 205 191 203 196 221 228 177 225 265 256
259 249 250 233 245 248 252 255 252 247 244 243 242 243 247 246 245 250 258 256 251 247 249 256 nan nan 246 249 232 214 218 220 216 210 178 194 226 220 238 235 257 264 256
250 247 238 230 238 241 243 246 244 244 246 250 249 250 250 250 251 251 253 256 248 252 250 252 254 244 nan nan nan 230 219 217 215 nan nan nan 220 222 259 263 267 276 280
256 253 248 235 236 235 238 241 242 241 239 238 241 246 249 251 251 247 249 252 254 249 252 254 257 257 245 nan nan 236 229 nan nan nan 222 218 216 246 262 260 269 281 310
246 243 247 235 234 233 234 235 236 239 240 239 237 235 236 242 244 250 246 247 257 261 259 253 254 254 251 247 nan nan nan nan nan nan nan 229 218 255 259 251 246 257 270
246 243 246 239 245 243 239 240 240 239 238 238 237 238 234 233 235 239 242 250 252 257 260 262 255 250 247 245 247 242 nan nan nan nan nan nan 232 218 252 254 252 259 261
242 240 239 247 235 237 241 239 238 239 239 238 237 236 235 233 233 233 240 245 248 248 252 256 260 255 244 241 248 244 nan nan nan nan nan nan 237 224 241 250 245 255 260
nan nan nan 241 242 262 252 242 240 238 237 237 237 238 237 236 233 233 231 236 242 242 241 244 251 256 252 242 243 240 nan nan nan nan 231 226 nan 217 228 246 248 253 266
nan nan nan nan nan nan nan 261 245 242 238 237 237 237 236 236 243 241 233 238 231 239 241 241 243 245 252 246 242 243 nan nan nan 235 236 234 227 224 225 254 253 247 261
nan nan nan nan nan nan nan nan nan nan nan nan nan nan nan 239 237 237 240 230 228 227 235 242 242 244 252 251 247 nan nan nan nan nan 236 243 228 230 219 271 262 257 252
nan nan nan nan nan nan nan nan nan nan nan nan nan nan nan nan nan 235 233 233 227 226 230 236 243 245 254 249 nan nan nan nan nan nan nan nan 231 246 245 252 257 258 259
nan nan nan nan nan nan nan nan nan nan nan nan nan nan nan nan nan nan nan 239 235 241 236 239 248 243 246 245 248 nan nan nan nan nan nan nan 234 252 252 264 270 262 266
nan nan nan nan nan nan nan nan nan nan nan nan nan nan nan nan nan nan nan nan nan 236 237 237 238 241 244 250 250 nan nan nan nan nan nan nan 238 245 262 257 263 265 267
nan nan nan nan nan nan nan nan nan nan nan nan nan nan nan nan nan nan nan nan 239 235 235 238 242 242 244 242 244 250 253 nan nan nan nan nan nan 244 252 259 258 261 261
nan nan nan nan nan nan nan nan nan nan nan nan nan nan nan nan nan nan nan nan nan nan 234 233 236 241 242 242 247 248 248 251 nan nan nan nan nan nan 257 257 256 256 262
nan nan nan nan nan nan nan nan nan nan nan nan nan nan nan nan nan nan nan nan nan nan 229 229 228 233 235 240 234 238 246 248 248 nan nan 257 nan nan 265 272 265 259 261
nan nan nan nan nan nan nan nan nan nan nan nan nan nan nan nan nan nan nan nan nan nan nan nan 222 223 230 235 235 236 236 237 243 248 254 nan 264 262 nan 271 271 267 261
nan nan nan nan nan nan nan nan nan nan nan nan nan nan nan nan nan nan nan nan nan nan nan nan 232 233 nan 227 234 240 246 246 243 244 253 260 264 264 266 272 nan nan 267
nan nan nan nan nan nan nan nan nan nan nan nan nan nan nan nan nan nan nan nan nan nan nan nan nan nan nan nan nan nan nan nan 251 254 256 260 262 266 266 269 273 274 nan
nan nan nan nan nan nan nan nan nan nan nan nan nan nan nan nan nan nan nan nan nan nan nan nan nan nan nan nan nan nan nan nan nan nan 250 253 267 273 271 266 263 264 nan
nan nan nan nan nan nan nan nan nan nan nan nan nan nan nan nan nan nan nan nan nan nan nan nan nan nan nan nan nan nan nan nan nan nan nan 250 254 259 266 274 274 270 267
nan nan nan nan nan nan nan nan nan nan nan nan nan nan nan nan nan nan nan nan nan nan nan nan nan nan nan nan nan nan nan nan nan nan nan nan nan 251 254 259 268 273 279
nan nan nan nan nan nan nan nan nan nan nan nan nan nan nan nan nan nan nan nan nan nan nan nan nan nan nan nan nan nan nan nan nan nan nan nan nan nan nan nan 258 264 269
nan nan nan nan nan nan nan nan nan nan nan nan nan nan nan nan nan nan nan nan nan nan nan nan nan nan nan nan nan nan nan nan nan nan nan nan nan nan nan nan nan nan nan
nan nan nan nan nan nan nan nan nan nan nan nan nan nan nan nan nan nan nan nan nan nan nan nan nan nan nan nan nan nan nan nan nan nan nan nan nan nan nan nan nan nan nan